Theta_e
310 310 309 308 307 307 306 306 306 305 305 305 305 304 304 304 305 306 307 307 307 307 307 307 307 308 309 309 310 311 311 312 313 313 314 315 316 316 317 318 319 320
308 308 307 307 306 305 305 304 304 303 303 303 303 303 303 303 304 304 305 305 304 303 303 304 304 304 304 305 306 306 307 308 309 310 311 312 312 313 313 314 315 316
307 306 306 305 304 304 304 303 303 302 301 301 302 302 302 302 302 302 302 302 301 300 301 301 302 302 302 303 303 304 304 304 304 305 306 307 308 308 309 310 311 312
306 305 304 303 303 303 303 302 301 301 300 300 300 300 300 300 300 300 300 299 299 299 299 299 300 300 300 301 301 302 302 302 302 301 302 303 304 304 305 306 307 308
306 305 304 303 303 303 302 302 301 300 300 300 300 299 299 299 299 299 299 298 298 298 298 298 298 298 299 299 300 300 300 300 300 299 300 301 302 302 303 303 303 305
305 304 304 303 303 302 302 302 301 300 300 300 299 299 299 299 298 298 298 297 297 297 297 297 297 297 297 298 298 298 298 297 297 297 298 299 300 302 302 302 302 303
304 304 304 303 302 302 302 302 301 300 300 300 299 299 299 298 298 297 297 297 296 296 296 296 296 296 296 297 297 297 297 297 296 297 297 298 299 300 301 302 302 302
303 303 303 302 302 302 302 301 300 299 299 299 298 298 297 297 296 296 296 296 296 296 295 295 295 295 296 296 296 297 297 297 296 296 297 297 298 299 300 301 302 302
301 301 302 302 302 302 301 300 299 298 298 297 297 296 296 295 295 295 295 295 295 295 295 295 295 295 295 295 295 295 296 296 296 296 296 297 298 299 300 301 302 302
300 300 300 301 301 301 300 299 298 297 296 296 295 295 295 295 295 295 295 295 295 295 295 295 295 295 295 295 295 295 295 295 295 295 295 296 297 298 299 300 301 301
300 300 300 300 299 299 298 297 296 296 296 295 295 295 295 295 294 295 295 295 295 295 295 295 295 294 294 295 295 295 295 295 295 295 295 295 296 297 299 299 300 300
300 300 299 299 298 297 297 296 296 296 296 295 295 294 294 294 294 294 294 294 294 294 294 294 294 294 294 294 295 295 295 295 295 295 295 295 295 296 297 298 298 299
299 299 299 298 298 297 296 296 296 296 295 295 294 294 294 293 293 294 294 294 294 294 294 294 294 294 294 294 294 294 295 295 295 295 295 295 295 295 296 297 298 298
299 299 298 298 297 296 296 296 296 295 295 294 294 293 293 293 293 293 293 293 293 294 294 294 294 294 294 294 294 294 294 294 294 294 294 295 294 295 295 296 297 297
298 298 298 297 296 296 296 296 296 295 295 294 294 293 293 293 293 293 293 293 293 293 293 294 294 294 294 294 294 294 294 294 294 294 294 294 294 294 294 295 296 296
298 298 297 296 296 296 296 296 296 295 295 294 294 293 293 293 293 292 293 293 293 293 293 293 294 294 294 294 294 294 293 294 294 294 294 294 294 294 294 294 295 296
298 298 297 297 297 297 296 296 296 296 295 295 294 294 294 293 293 293 293 293 293 293 293 293 293 294 294 294 294 293 293 293 293 293 294 294 294 293 293 294 294 295
298 298 297 297 297 297 297 296 296 296 295 294 294 294 294 293 293 293 293 293 293 293 293 293 293 294 294 294 294 293 293 293 293 293 293 293 293 293 293 293 294 294
298 298 298 298 297 297 297 297 296 295 295 294 294 294 294 293 293 293 293 293 293 293 292 292 293 294 294 294 293 293 293 293 293 293 293 293 293 293 293 293 293 293
298 298 298 298 298 298 298 297 296 295 294 294 294 294 294 293 293 293 293 293 293 292 292 292 293 294 294 293 293 293 293 293 293 293 293 293 293 293 293 293 293 293
298 298 298 298 298 297 297 297 296 295 294 294 294 293 293 293 293 293 293 293 292 292 292 292 293 294 293 293 293 293 293 293 293 293 293 293 293 293 293 292 292 292
298 297 297 297 297 297 296 296 295 294 294 294 293 293 293 293 293 293 293 292 292 292 292 292 293 294 293 293 293 294 293 293 293 293 292 292 293 293 292 292 291 292
297 296 296 296 296 296 296 295 295 294 294 294 294 294 293 293 293 293 292 292 292 292 292 292 293 294 293 293 293 294 294 293 293 292 292 292 292 292 292 291 291 292
296 296 296 296 296 296 295 295 294 294 294 294 294 294 293 293 293 293 292 292 292 292 292 292 293 294 293 293 293 294 294 293 293 292 292 292 292 292 291 291 291 291
296 296 296 296 296 296 295 295 295 295 294 294 294 294 294 294 293 293 293 292 292 292 292 293 293 293 293 293 293 294 293 293 292 292 291 291 291 291 291 291 290 291
296 296 296 296 296 296 296 295 295 295 295 294 294 294 294 294 294 294 293 292 292 292 292 293 293 293 293 293 293 293 293 292 292 291 291 291 291 290 290 290 290 291
Wind_Speed
17 17 17 18 18 18 17 16 16 16 16 16 16 16 16 15 14 14 15 15 16 18 18 18 18 19 18 18 19 20 20 21 22 22 22 21 20 20 19 20 20 21
17 17 17 18 18 18 17 17 18 18 18 17 16 16 16 16 15 16 17 18 20 21 21 21 22 22 22 22 21 21 21 21 21 20 21 21 21 21 21 21 20 20
17 18 18 19 19 19 18 18 20 21 21 20 19 18 19 19 18 18 19 21 23 24 24 25 25 25 26 26 25 26 25 25 24 22 21 21 21 21 22 22 22 21
18 19 19 20 20 19 19 20 22 23 23 23 23 22 22 22 22 22 23 24 26 27 27 27 28 28 28 28 28 28 27 26 25 24 24 24 24 23 23 22 22 22
18 18 19 21 21 20 21 22 23 23 23 24 24 24 24 24 24 24 25 26 27 28 29 29 30 31 31 30 30 30 29 27 24 24 24 25 25 24 23 21 21 22
17 17 18 19 20 20 21 22 23 23 23 23 23 24 24 25 25 25 25 26 28 30 31 31 32 33 33 33 32 31 30 27 24 23 23 23 23 24 24 23 22 21
16 16 17 17 17 18 19 21 22 23 23 23 23 24 25 26 26 26 26 26 28 30 31 32 33 34 34 34 34 33 31 28 26 26 23 21 21 22 22 22 23 22
16 16 16 16 16 17 19 20 21 22 23 24 25 25 26 27 27 27 27 27 28 29 31 32 34 34 35 35 35 34 32 30 30 29 26 23 22 22 21 19 20 23
18 17 17 16 17 18 18 19 20 22 23 25 26 26 27 27 27 28 28 28 28 29 31 32 34 35 35 36 35 34 31 30 30 31 28 25 23 23 22 21 21 22
20 19 18 18 18 18 19 20 22 24 25 26 27 27 28 28 28 29 29 29 29 29 31 32 33 35 36 36 35 34 31 30 31 31 29 25 23 23 22 22 23 23
21 20 20 20 19 20 20 22 23 25 26 26 27 28 28 28 29 29 29 30 30 29 30 32 33 35 37 37 37 35 33 31 32 32 30 27 23 22 22 22 22 23
20 19 19 19 20 21 22 22 24 25 26 27 27 28 28 28 29 29 29 30 29 29 30 31 33 35 37 38 38 36 34 33 33 32 32 30 26 22 21 21 21 22
19 18 18 19 20 20 21 22 23 24 25 26 27 28 29 29 29 30 30 30 30 30 30 31 33 35 37 38 38 37 34 32 32 32 32 32 29 25 22 21 21 22
18 18 18 19 20 20 21 22 23 24 25 26 27 28 29 29 30 30 30 30 30 30 30 31 32 35 37 38 38 38 35 32 31 30 30 31 31 30 26 22 21 22
18 19 19 19 20 21 22 23 23 23 24 25 27 28 28 28 29 29 30 30 30 31 31 31 31 33 35 37 38 38 35 32 30 29 28 29 30 32 30 24 21 22
18 19 19 20 21 22 22 22 22 22 23 24 25 26 26 27 28 29 30 30 30 31 31 31 31 32 33 34 36 37 35 33 31 30 29 29 29 31 30 25 22 23
18 18 19 19 20 21 21 21 21 21 22 23 23 24 24 25 27 29 30 30 30 31 31 31 31 32 33 34 36 37 35 33 32 31 30 29 29 29 28 24 23 23
18 18 18 18 19 19 19 19 19 20 21 21 22 22 22 24 25 27 28 29 30 30 30 30 31 31 32 33 35 37 36 33 32 32 31 31 31 30 28 25 24 24
16 16 17 17 17 17 16 17 17 18 20 20 21 21 21 22 23 24 25 27 28 30 30 30 30 31 31 33 36 37 36 34 33 33 32 32 32 32 30 27 25 24
14 14 14 14 14 14 14 14 15 16 18 19 20 21 21 21 22 23 24 25 27 29 30 30 30 30 32 34 36 38 37 36 35 34 34 34 33 33 31 29 26 26
12 12 12 12 11 11 12 13 14 16 18 19 20 20 20 20 21 22 24 25 27 28 30 30 29 30 32 34 35 37 37 37 36 35 35 36 35 34 33 31 28 26
12 12 12 12 12 11 12 14 15 16 17 18 20 21 22 22 22 23 24 26 28 29 30 30 29 29 32 34 34 35 37 38 36 36 37 37 36 34 32 30 28 27
14 15 15 14 13 14 15 15 16 16 17 19 21 22 23 23 24 24 26 28 29 30 30 30 29 30 32 33 34 34 36 37 36 36 36 35 36 34 30 29 29 28
16 16 15 15 14 15 15 15 16 16 17 18 20 21 23 23 24 26 27 29 30 30 29 29 30 31 32 33 34 34 35 35 34 33 32 30 32 32 31 31 30 30
16 15 15 15 15 15 14 14 15 15 16 17 19 20 22 23 25 27 28 30 30 30 29 29 30 31 32 33 34 35 35 34 33 31 30 28 28 29 29 30 31 34
15 14 13 13 13 13 13 13 13 14 15 17 19 20 22 23 25 27 28 29 30 30 30 29 30 31 32 32 33 35 36 35 34 32 29 28 26 26 27 29 31 36
Wind_Direction
67 66 65 62 60 57 54 52 51 50 49 45 43 39 33 31 28 28 31 32 30 24 19 17 13 8 2 358 352 345 339 334 328 324 323 322 322 322 321 318 316 317
67 65 63 60 59 57 56 56 55 53 52 49 46 44 40 37 38 41 43 41 37 33 31 30 27 24 21 17 12 7 1 354 345 335 328 324 321 317 315 315 315 316
67 64 62 59 60 60 60 59 56 54 52 50 50 49 46 45 45 48 48 44 38 33 33 32 29 26 23 19 17 15 12 9 5 358 350 344 338 331 325 320 316 315
71 67 64 62 62 62 62 59 55 53 52 52 53 54 53 51 48 48 45 40 36 33 32 31 28 26 22 19 17 15 13 11 10 7 2 358 355 349 342 337 328 321
76 71 67 63 62 62 61 57 53 52 53 54 54 54 53 51 48 45 41 37 35 33 31 31 28 25 22 19 17 14 12 11 9 5 1 359 359 356 350 345 340 334
78 75 70 65 62 63 61 57 53 53 55 55 53 51 50 49 47 44 40 37 34 31 30 29 27 24 22 19 17 14 12 9 5 360 355 352 352 355 353 348 345 342
77 74 72 67 64 65 64 59 55 54 55 55 54 52 50 48 46 43 40 36 34 31 29 27 25 23 20 18 16 14 13 10 6 1 355 347 345 347 348 346 344 342
77 74 73 69 67 67 64 61 57 55 56 57 56 54 52 49 46 43 41 38 34 31 28 26 25 22 20 18 16 14 12 11 7 4 358 350 346 343 341 340 339 336
78 76 75 72 70 68 65 62 60 60 60 59 58 55 53 50 46 43 41 38 35 31 27 25 23 21 19 18 16 13 11 9 7 6 1 353 348 344 342 340 337 334
77 76 76 74 72 69 67 66 65 65 63 60 58 55 52 49 46 43 40 37 34 30 27 24 22 20 18 18 16 14 11 9 7 6 2 355 348 345 343 342 340 338
76 77 77 75 74 72 71 70 68 66 62 59 56 53 51 48 45 42 39 37 34 30 27 25 22 19 17 17 16 14 13 11 8 6 3 358 351 346 345 343 342 340
78 79 79 78 77 75 73 71 68 65 61 57 55 52 50 47 45 43 40 38 35 32 29 26 23 20 18 16 15 13 13 12 9 7 5 2 356 348 344 342 340 339
81 82 83 82 80 77 73 70 67 63 59 56 54 51 49 46 44 43 40 38 36 33 30 26 23 20 18 16 14 12 11 10 8 6 4 4 0 352 344 340 339 338
86 88 87 85 82 77 73 70 65 61 58 56 53 50 48 46 44 42 40 38 36 33 30 26 23 21 17 14 12 10 9 8 6 4 2 2 0 357 351 341 337 338
92 92 90 86 82 77 72 68 64 60 57 54 51 49 47 45 44 42 40 37 35 32 29 26 22 19 17 15 12 9 7 6 4 2 0 359 357 358 355 346 339 338
96 94 90 85 80 75 70 66 62 59 55 51 48 46 44 44 43 42 40 36 33 31 27 24 21 17 15 15 13 10 7 6 4 1 1 359 355 355 353 347 342 339
99 95 89 84 78 73 68 63 59 57 53 49 46 44 43 42 42 40 38 35 32 29 25 22 19 15 14 14 13 11 9 7 5 2 0 359 355 353 349 344 340 338
100 95 88 82 76 71 66 61 58 56 52 47 44 42 41 40 39 37 35 32 28 26 23 21 18 15 15 14 13 12 11 9 6 3 1 358 356 353 350 344 339 336
101 94 87 81 74 70 66 61 59 57 52 47 44 42 40 38 37 34 31 27 25 23 22 20 18 15 16 15 13 12 12 10 8 5 1 359 356 354 352 347 342 338
102 94 88 81 75 71 66 63 62 59 55 49 45 42 39 37 34 31 29 26 24 22 22 21 20 18 18 16 14 13 13 11 8 6 3 0 358 357 354 350 346 342
105 98 91 85 80 75 71 70 69 64 58 52 47 45 42 39 36 32 30 27 24 22 23 23 22 21 20 18 14 12 12 11 8 6 3 1 360 359 357 354 350 347
107 101 97 92 89 85 82 79 75 68 61 55 52 51 49 46 43 37 32 29 26 24 24 24 25 24 21 18 15 12 12 11 8 5 3 0 359 359 357 355 353 350
111 106 103 99 96 91 86 83 77 68 62 57 54 53 51 49 45 40 35 31 28 27 25 24 25 24 21 19 16 12 11 10 7 3 1 359 359 359 357 355 355 352
117 112 109 104 99 93 88 83 77 69 63 58 55 53 51 48 44 41 37 33 31 29 27 25 25 25 22 20 18 14 11 10 6 3 0 358 358 358 357 356 355 353
123 118 112 105 100 96 91 85 77 70 63 58 55 52 49 45 42 39 36 34 31 30 29 27 25 25 24 22 19 17 14 11 9 5 0 357 356 355 353 354 354 355
129 122 113 106 101 98 94 86 77 69 61 55 52 48 45 42 39 36 34 32 30 30 30 29 26 24 24 23 21 19 17 15 14 10 2 357 356 354 352 352 353 356